SEJ187 VEBN-VAPO

Flight info

Callsign SEJ187
Flight time N/A
Altitude 34000
Route BN451 DCT ALGOB G590 KKJ Q14 OSBEM W146 AAU J5 UBSAB
Aircraft B739/M-SDE2E3FGHIRWXY/LB1

Departure

Time 2026-05-09 10:48
Airport Lal Bahadur Shastri International Airport (VEBN)

Arrival

Time N/A
Airport Pune International Airport (VAPO)
Time Latitude Longitude Altitude Speed Heading
2026-05-09 10:08 25.44961 82.85681 293 ft 0 kts 181°
2026-05-09 10:13 25.44975 82.85681 276 ft 4 kts 181°
2026-05-09 10:13 25.45001 82.85682 278 ft 4 kts 185°
2026-05-09 10:14 25.45020 82.85687 281 ft 3 kts 211°
2026-05-09 10:14 25.45029 82.85697 276 ft 2 kts 256°
2026-05-09 10:14 25.45030 82.85709 276 ft 2 kts 269°
2026-05-09 10:14 25.45030 82.85722 280 ft 2 kts 272°
2026-05-09 10:15 25.45030 82.85726 279 ft 0 kts 272°
2026-05-09 10:21 25.44961 82.85681 276 ft 0 kts 181°
2026-05-09 10:30 25.44966 82.85681 278 ft 3 kts 181°
2026-05-09 10:30 25.44990 82.85682 278 ft 3 kts 182°
2026-05-09 10:30 25.45014 82.85684 280 ft 3 kts 192°
2026-05-09 10:31 25.45027 82.85690 282 ft 2 kts 232°
2026-05-09 10:31 25.45032 82.85701 282 ft 2 kts 265°
2026-05-09 10:31 25.45032 82.85713 282 ft 2 kts 272°
2026-05-09 10:31 25.45032 82.85725 282 ft 0 kts 274°
2026-05-09 10:43 25.45032 82.85708 273 ft 6 kts 273°
2026-05-09 10:44 25.45037 82.85619 276 ft 16 kts 273°
2026-05-09 10:44 25.45092 82.85535 276 ft 15 kts 347°
2026-05-09 10:44 25.45170 82.85542 276 ft 10 kts
2026-05-09 10:44 25.45230 82.85568 276 ft 9 kts 49°
2026-05-09 10:45 25.45241 82.85634 276 ft 9 kts 95°
2026-05-09 10:46 25.45206 82.86269 276 ft 36 kts 93°
2026-05-09 10:46 25.45190 82.86575 275 ft 42 kts 93°
2026-05-09 10:46 25.45178 82.86878 278 ft 28 kts 104°
2026-05-09 10:46 25.45137 82.87002 279 ft 9 kts 56°
2026-05-09 10:47 25.45176 82.86991 275 ft 7 kts 284°
2026-05-09 10:47 25.45177 82.86936 277 ft 7 kts 270°
2026-05-09 10:47 25.45189 82.86689 275 ft 69 kts 274°
2026-05-09 10:47 25.45226 82.85878 277 ft 138 kts 273°
2026-05-09 10:48 25.45260 82.84605 308 ft 189 kts 269°
2026-05-09 10:48 25.45270 82.83146 833 ft 203 kts 270°
2026-05-09 10:48 25.45269 82.81397 966 ft 244 kts 269°
2026-05-09 10:48 25.45270 82.79404 1288 ft 265 kts 274°
2026-05-09 10:49 25.45393 82.77444 2477 ft 249 kts 276°
2026-05-09 10:49 25.45556 82.75539 3237 ft 251 kts 276°
2026-05-09 10:49 25.45698 82.73525 3481 ft 270 kts 269°
2026-05-09 10:49 25.45384 82.71468 4054 ft 276 kts 253°
2026-05-09 10:50 25.44772 82.69437 4831 ft 276 kts 251°
2026-05-09 10:50 25.44125 82.67433 5664 ft 273 kts 251°
2026-05-09 10:50 25.43516 82.65477 6468 ft 270 kts 252°
2026-05-09 10:50 25.42924 82.63479 7127 ft 274 kts 253°
2026-05-09 10:51 25.42347 82.61456 7791 ft 275 kts 254°
2026-05-09 10:51 25.41789 82.59452 8487 ft 276 kts 255°
2026-05-09 10:51 25.41238 82.57442 9184 ft 277 kts 256°
2026-05-09 10:51 25.40813 82.55876 9703 ft 278 kts 256°